This is the latest recevied weather packets stored in our database for station/object Seibranz. If no packets are shown the sender has not sent any weather packets the latest 10 day(s).
| Time | Temp. | Humidity | Pressure | Rain* | Wind** | Luminosity | Snow |
|---|---|---|---|---|---|---|---|
| 1788174130 | 20° C | 72% | 1016.5 hPa | 5.08 mm | - | - | - |
| 1788172331 | 19.44° C | 77% | 1016.6 hPa | 5.08 mm | - | - | - |
| 1788170531 | 18.33° C | 77% | 1016.6 hPa | 5.08 mm | - | - | - |
| 1788168730 | 18.89° C | 82% | 1016.8 hPa | 5.08 mm | - | - | - |
| 1788166930 | 18.33° C | 83% | 1016.8 hPa | 5.08 mm | - | - | - |
| 1788165130 | 17.78° C | 84% | 1016.5 hPa | 5.08 mm | - | - | - |
| 1788163331 | 17.22° C | 88% | 1016.2 hPa | 5.08 mm | - | - | - |
| 1788161530 | 16.67° C | 90% | 1016 hPa | 5.08 mm | - | - | - |
| 1788159730 | 16.67° C | 91% | 1015.7 hPa | 5.08 mm | - | - | - |
| 1788157930 | 16.11° C | 92% | 1015.5 hPa | 5.08 mm | - | - | - |
| 1788156130 | 15.56° C | 93% | 1015.2 hPa | 5.08 mm | - | - | - |
| 1788154330 | 15° C | 94% | 1015 hPa | 5.08 mm | - | - | - |
| 1788152530 | 15° C | 94% | 1015 hPa | 5.08 mm | - | - | - |
| 1788150730 | 15° C | 94% | 1015 hPa | 5.08 mm | - | - | - |
| 1788148929 | 15° C | 93% | 1015.1 hPa | 5.08 mm | - | - | - |
| 1788147130 | 14.44° C | 93% | 1015 hPa | 5.08 mm | - | - | - |
| 1788145329 | 14.44° C | 93% | 1014.9 hPa | 5.08 mm | - | - | - |
| 1788143529 | 14.44° C | 92% | 1014.9 hPa | 5.08 mm | - | - | - |
| 1788141729 | 15° C | 90% | 1015.1 hPa | 4.32 mm | - | - | - |
| 1788139931 | 16.67° C | 85% | 1014.9 hPa | 0 mm | - | - | - |
| 1788138129 | 15.56° C | 88% | 1012.6 hPa | 0 mm | - | - | - |
| 1788136332 | 15.56° C | 86% | 1012.7 hPa | 0 mm | - | - | - |
| 1788134532 | 16.67° C | 84% | 1012.9 hPa | 0 mm | - | - | - |
| 1788132731 | 15° C | 91% | 1013 hPa | 0 mm | - | - | - |
| 1788130931 | 15° C | 89% | 1013.1 hPa | 0 mm | - | - | - |
* Rain since midnight (hover to see other rain measurements)
** Current wind speed in m/s (hover to see current wind gust speed)